Regional Weather Roundup
Issued by NWS

Home | Current Version | Previous Version | Graphics & Text | Print | Product List | Glossary On
Versions: 1 2 3 4 5 6 7 8 9 10 11 12 13 14 15 16 17 18 19 20 21 22 23 24 25 26 27 28 29 30 31 32 33 34 35 36 37 38 39 40 41 42 43 44 45 46 47 48 49 50
000
ASUS43 KLSX 251007
RWRMO
STLRWRMO ALL

WEATHER SUMMARY FOR MISSOURI
NATIONAL WEATHER SERVICE SPRINGFIELD MO
500 AM CDT TUE APR 25 2017

NOTE: "FAIR" INDICATES FEW OR NO CLOUDS BELOW 12,000 FEET WITH NO
       SIGNIFICANT WEATHER AND/OR OBSTRUCTIONS TO VISIBILITY.
       CURRENT SKY AND/OR WEATHER CONDITIONS ARE NOT AVAILABLE FOR
       CHILLICOTHE AND FARMINGTON.

MOZ001>031-035>038-043-044-053-054-251100-
...NORTHERN AND WESTERN MISSOURI...

CITY           SKY/WX    TMP DP  RH WIND       PRES   REMARKS
KANSAS CTY INT CLOUDY    62  47  57 S15       29.53R
KANSAS C DTWN  CLOUDY    62  46  55 S6        29.54R
LEE`S SUMMIT   CLOUDY    60  45  57 S13       29.55R
ST JOSEPH      CLOUDY    61  49  64 S9        29.53R
CHILLICOTHE      N/A     56  38  50 SE6       29.56F
KIRKSVILLE     MOCLDY    49  32  52 S7        29.59F

$$
MOZ066>068-077>081-088>096-101>105-251100-
...SOUTHWEST MISSOURI...

CITY           SKY/WX    TMP DP  RH WIND       PRES   REMARKS
SPRINGFIELD    CLEAR     55  42  61 SE12      29.61F
JOPLIN         CLEAR     57  44  62 SE8       29.56F
BRANSON        CLEAR     52  43  71 SE7       29.65F

$$
MOZ032>034-039>042-045>050-055>058-069>072-251100-
...CENTRAL MISSOURI...

CITY           SKY/WX    TMP DP  RH WIND       PRES   REMARKS
COLUMBIA       CLEAR     55  43  63 S12       29.61F
JEFFERSON CITY CLEAR     59  42  53 E6        29.62F
ROLLA          CLOUDY    55  45  68 S12       29.64F
SEDALIA        CLOUDY    59  42  53 SE9       29.59F
WHITEMAN AFB   MOCLDY    58  42  57 S10       29.56F
OSAGE BEACH    CLOUDY    57  43  59 S8        29.63F

$$
MOZ051-052-059>065-251100-
...EAST CENTRAL MISSOURI...

CITY           SKY/WX    TMP DP  RH WIND       PRES   REMARKS
ST LOUIS INTL  MOCLDY    59  48  67 S9        29.69S
SPIRIT OF STL  CLOUDY    51  47  86 CALM      29.67F
ST CHARLES     CLOUDY    50  43  77 E8        29.67F

$$
MOZ072>076-082>087-097>100-106>115-251100-
...SOUTH CENTRAL AND SOUTHEAST MISSOURI...

CITY           SKY/WX    TMP DP  RH WIND       PRES   REMARKS
CAPE GIRARDEAU PTCLDY    54  51  90 CALM      29.72S
FARMINGTON     CLEAR     53  50  89 CALM      29.70F
POPLAR BLUFF   CLEAR     52  52 100 CALM      29.71F
WEST PLAINS    CLEAR     53  44  71 S5        29.69F

$$




USA.gov is the U.S. government's official web portal to all federal, state and local government web resources and services.